Lawrence, MA

11:40 AM EDT on August 28, 2016 (GMT -0400)
Lawrence Municipal

Weather History for KLWM - April, 2013

Change the Weather History Date:

Thursday, April 18, 2013

  Actual Average Record
Temperature  
Mean Temperature 50 °F -  
Max Temperature 61 °F 60 °F 89 °F (1976)
Min Temperature 39 °F 39 °F 24 °F (2003)
Degree Days  
Heating Degree Days 16    
Moisture  
Dew Point 31 °F    
Average Humidity 46    
Maximum Humidity 67    
Minimum Humidity 26    
Precipitation  
Precipitation 0.00 in - - ()
Sea Level Pressure  
Sea Level Pressure 30.33 in    
Wind  
Wind Speed 5 mph (SSE)    
Max Wind Speed 14 mph    
Max Gust Speed 23 mph    
Visibility 10 miles    
Events      
Averages and records for this station are not official NWS values.
T = Trace of Precipitation, MM = Missing Value Source: NWS Daily Summary

Daily Weather History Graph

Daily Weather History Graph

Search for Another Location

Airport or City:

Trip Planner

Search our weather history database for the weather conditions in past years. The results will help you decide how hot, cold, wet, or windy it might be!

Date:

Astronomy

Apr. 18, 2013 Rise Set
Actual Time 5:57 AM EDT 7:30 PM EDT
Civil Twilight 5:28 AM EDT 8:00 PM EDT
Nautical Twilight 4:52 AM EDT 8:35 PM EDT
Astronomical Twilight 4:14 AM EDT 9:14 PM EDT
Moon 12:05 PM EDT (4/18) 1:45 AM EDT (4/18)
Length of Visible Light 14h 31m
Length of Day
13h 32m
First Quarter, 51% of the Moon is Illuminated
Apr 18
First Quarter
Apr 25
Full
May 2
Last Quarter
May 9
New
May 18
First Quarter

Hourly Weather History & Observations

Time (EDT) Temp. Windchill Dew Point Humidity Pressure Visibility Wind Dir Wind Speed Gust Speed Precip Events Conditions
12:54 AM 48.0 °F - 27.0 °F 44% 30.39 in 10.0 mi Calm Calm - N/A   Clear
1:54 AM 48.0 °F - 28.0 °F 46% 30.39 in 10.0 mi East 5.8 mph - N/A   Clear
2:54 AM 45.0 °F - 28.9 °F 53% 30.38 in 10.0 mi Calm Calm - N/A   Clear
3:54 AM 41.0 °F - 30.9 °F 67% 30.42 in 10.0 mi Calm Calm - N/A   Clear
4:54 AM 39.0 °F - 28.9 °F 67% 30.43 in 10.0 mi Calm Calm - N/A   Clear
5:54 AM 39.0 °F - 28.9 °F 67% 30.43 in 10.0 mi Calm Calm - N/A   Clear
6:54 AM 44.1 °F 42.5 °F 30.9 °F 60% 30.43 in 10.0 mi ENE 3.5 mph - N/A   Clear
7:54 AM 48.0 °F - 33.1 °F 56% 30.45 in 10.0 mi ENE 4.6 mph - N/A   Clear
8:54 AM 52.0 °F - 27.0 °F 38% 30.44 in 10.0 mi ESE 6.9 mph - N/A   Partly Cloudy
9:54 AM 54.0 °F - 25.0 °F 33% 30.44 in 10.0 mi Variable 6.9 mph 16.1 mph N/A   Clear
10:54 AM 55.9 °F - 28.9 °F 36% 30.44 in 10.0 mi Variable 6.9 mph - N/A   Clear
11:54 AM 55.9 °F - 30.9 °F 39% 30.42 in 10.0 mi SE 12.7 mph 16.1 mph N/A   Clear
12:54 PM 59.0 °F - 30.9 °F 35% 30.38 in 10.0 mi Variable 5.8 mph 17.3 mph N/A   Overcast
1:54 PM 59.0 °F - 30.9 °F 35% 30.34 in 10.0 mi ESE 11.5 mph 17.3 mph N/A   Clear
2:54 PM 60.1 °F - 30.0 °F 32% 30.32 in 10.0 mi SE 13.8 mph 18.4 mph N/A   Clear
3:54 PM 59.0 °F - 33.1 °F 38% 30.29 in 10.0 mi Variable 6.9 mph - N/A   Overcast
4:54 PM 57.9 °F - 36.0 °F 44% 30.27 in 10.0 mi SE 8.1 mph - N/A   Overcast
5:54 PM 60.1 °F - 30.0 °F 32% 30.26 in 10.0 mi SW 13.8 mph 18.4 mph N/A   Overcast
6:54 PM 59.0 °F - 28.0 °F 31% 30.25 in 10.0 mi SSW 11.5 mph 16.1 mph N/A   Overcast
7:54 PM 57.0 °F - 21.9 °F 26% 30.23 in 10.0 mi South 8.1 mph 23.0 mph N/A   Overcast
8:54 PM 55.9 °F - 26.1 °F 32% 30.22 in 10.0 mi South 10.4 mph - N/A   Overcast
9:54 PM 54.0 °F - 37.0 °F 53% 30.20 in 10.0 mi South 3.5 mph - N/A   Scattered Clouds
10:54 PM 53.1 °F - 39.0 °F 59% 30.18 in 10.0 mi South 5.8 mph - N/A   Partly Cloudy
11:08 PM 53.6 °F - 39.2 °F 58% 30.17 in 10.0 mi South 5.8 mph - N/A   Mostly Cloudy
11:54 PM 54.0 °F - 39.9 °F 59% 30.17 in 10.0 mi SW 5.8 mph - N/A   Overcast